Content
SEND FEEDBACK

Daily
Averages
Monthly
Summary
United States of America

DUNMOR, KENTUCKY


Home > North America > United States > Kentucky
Elevation: 61 feet     Latitude: 37 05N     Longitude: 087 00W

WEATHER
 
SELECT A DAY
Number of Records: 65,501;   Date Range: 10/21/11 - 7/25/14
 
SHARE

PRINT THIS DATA

[ ← Previous Day ]
WEATHER ALMANAC - FEBRUARY 5, 2013
[ Next Day → ]
[ °C ]   °F
Weather ElementAverageHighLow
Temperature44.8 °F56.3 °F (2:35 pm)36.5 °F (9:15 am)
Dewpoint38.7 °F42.3 °F (11:35 am)36 °F (9:35 am)
Humidity81.1 %99 % (3:55 am)49 % (3:55 pm)
Barometer29.97 in30.09 in (11:35 pm)29.92 in (12:35 am)
Wind Speed7.1 mph13.8 mph (2:35 pm)
Wind Gust17.3 mph (3:15 pm)
Weather ElementAverage
Visibility7.9 mi
Wind DirectionW (269.6 °)

Weather ElementTotal
Precipitation---
Heating Degree Days18.6 (Base 65)
Averaged from 71 records on February 5, 2013
WEATHER CONDITIONS BREAKOUT
WIND DIRECTION BREAKOUT
WEATHER BY HOUR - FEBRUARY 5, 2013
[ °C ]   °F
Local TimeTemperatureDewpointHumidityBarometerVisibilityWind DirectionWind SpeedGust SpeedPrecipitationEventsConditions
12:35 AM43.7 °F41.5 °F92 %29.92 in10.0 miWNW (290°)6.9 mphOvercast
12:55 AM43.7 °F41.4 °F91 %29.92 in10.0 miWNW (300°)5.8 mphOvercast
1:15 AM43.7 °F41.4 °F91 %29.92 in10.0 miWNW (300°)4.6 mphOvercast
1:35 AM43.7 °F41.4 °F91 %29.92 in10.0 miWNW (290°)4.6 mphOvercast
1:55 AM43.3 °F41.5 °F93 %29.92 in10.0 miWest (280°)3.5 mphOvercast
2:15 AM43.0 °F41.4 °F94 %29.92 in10.0 miCalmOvercast
2:35 AM43.2 °F41.5 °F94 %29.92 in10.0 miWest (270°)4.6 mphOvercast
2:55 AM42.8 °F41.4 °F95 %29.92 in10.0 miNW (310°)5.8 mphOvercast
3:15 AM42.8 °F41.5 °F95 %29.93 in10.0 miNNW (330°)5.8 mphOvercast
3:35 AM41.5 °F41.0 °F98 %29.93 in5.0 miNNW (330°)4.6 mphOvercast
3:55 AM41.2 °F41.0 °F99 %29.93 in4.0 miNorth (350°)5.8 mphOvercast
4:15 AM40.5 °F40.3 °F99 %29.93 in3.0 miNorth (360°)5.8 mphOvercast
4:35 AM39.2 °F38.8 °F99 %29.94 in4.0 miNorth (360°)9.2 mphOvercast
4:55 AM38.7 °F37.8 °F97 %29.94 in5.0 miNorth (10°)4.6 mphOvercast
5:15 AM38.3 °F37.4 °F97 %29.94 in5.0 miNorth (360°)5.8 mphOvercast
5:35 AM38.3 °F37.4 °F97 %29.94 in5.0 miCalmOvercast
5:55 AM38.3 °F37.6 °F97 %29.95 in5.0 miNW (320°)3.5 mphOvercast
6:15 AM37.9 °F37.4 °F98 %29.96 in5.0 miNNW (330°)4.6 mphOvercast
6:35 AM37.4 °F36.9 °F98 %29.97 in4.0 miNNW (340°)4.6 mphOvercast
6:55 AM37.0 °F36.5 °F98 %29.98 in4.0 miNNW (330°)3.5 mphOvercast
7:15 AM36.7 °F36.3 °F99 %29.99 in3.0 miNNW (330°)3.5 mphOvercast
7:35 AM36.9 °F36.1 °F97 %29.99 in4.0 miWNW (300°)3.5 mphOvercast
7:55 AM36.9 °F36.5 °F99 %29.99 in3.0 miWNW (290°)4.6 mphOvercast
8:15 AM36.7 °F36.5 °F99 %30.00 in3.0 miNW (310°)3.5 mphOvercast
8:35 AM36.7 °F36.1 °F98 %30.01 in4.0 miNW (310°)5.8 mphOvercast
8:55 AM36.7 °F36.3 °F99 %30.02 in3.0 miWest (280°)6.9 mphOvercast
9:15 AM36.5 °F36.3 °F99 %30.03 in3.0 miWest (260°)8.1 mphOvercast
9:35 AM36.5 °F36.0 °F98 %30.03 in3.0 miWest (270°)4.6 mphOvercast
9:55 AM37.4 °F36.7 °F97 %30.02 in3.0 miWSW (250°)5.8 mphOvercast
10:15 AM38.3 °F37.6 °F97 %30.02 in3.0 miWSW (250°)6.9 mphOvercast
10:35 AM39.4 °F38.5 °F97 %30.02 in4.0 miWSW (250°)4.6 mphOvercast
10:55 AM41.5 °F39.7 °F93 %30.01 in4.0 miWSW (240°)5.8 mphOvercast
11:15 AM43.9 °F40.8 °F89 %30.00 in5.0 miWSW (240°)3.5 mphMostly Cloudy
11:35 AM46.4 °F42.3 °F85 %29.98 in7.0 miSSW (200°)8.1 mphScattered Clouds
11:55 AM48.6 °F41.7 °F77 %29.97 in10.0 miSW (220°)6.9 mphClear
12:15 PM50.4 °F41.7 °F72 %29.96 in10.0 miSSW (210°)8.1 mphClear
12:35 PM52.0 °F41.7 °F68 %29.94 in10.0 miSW (220°)10.4 mphClear
12:55 PM53.1 °F41.4 °F64 %29.94 in10.0 miWSW (250°)11.5 mphClear
1:15 PM53.8 °F40.8 °F62 %29.94 in10.0 miWest (270°)11.5 mphClear
1:35 PM54.3 °F41.7 °F62 %29.93 in10.0 miWest (260°)11.5 mphClear
1:55 PM55.0 °F41.5 °F60 %29.93 in10.0 miWSW (250°)12.7 mphClear
2:15 PM55.6 °F40.5 °F57 %29.93 in10.0 miWSW (250°)12.7 mphClear
2:35 PM56.3 °F40.5 °F55 %29.93 in10.0 miWest (260°)13.8 mphClear
2:55 PM56.3 °F39.2 °F53 %29.93 in10.0 miWest (260°)13.8 mphClear
3:15 PM56.3 °F38.7 °F52 %29.93 in10.0 miWSW (250°)13.8 mph17.3 mphClear
3:35 PM56.3 °F38.7 °F52 %29.93 in10.0 miWSW (240°)13.8 mphClear
3:55 PM56.1 °F37.4 °F49 %29.94 in10.0 miWest (280°)12.7 mph17.3 mphClear
4:15 PM55.0 °F36.9 °F50 %29.94 in10.0 miWest (270°)10.4 mphClear
4:35 PM54.1 °F37.8 °F54 %29.94 in10.0 miWest (260°)9.2 mphClear
4:55 PM53.2 °F38.3 °F57 %29.95 in10.0 miWest (280°)9.2 mphClear
5:15 PM51.6 °F38.8 °F62 %29.96 in10.0 miWest (260°)9.2 mphScattered Clouds
5:35 PM50.0 °F38.7 °F65 %29.96 in10.0 miWest (260°)8.1 mphScattered Clouds
5:55 PM49.1 °F38.1 °F66 %29.96 in10.0 miWest (260°)6.9 mphClear
6:15 PM45.7 °F37.6 °F73 %29.96 in10.0 miWSW (240°)8.1 mphClear
6:35 PM46.8 °F37.8 °F71 %29.97 in10.0 miWSW (250°)5.8 mphClear
6:55 PM48.0 °F37.6 °F67 %29.98 in10.0 miWest (260°)4.6 mphClear
7:15 PM43.7 °F36.7 °F76 %29.99 in10.0 miWSW (240°)6.9 mphClear
7:35 PM46.4 °F37.4 °F71 %30.00 in10.0 miWest (260°)6.9 mphClear
7:55 PM44.8 °F37.2 °F75 %30.00 in10.0 miWest (270°)6.9 mphClear
8:15 PM45.9 °F37.2 °F72 %30.01 in10.0 miWest (270°)4.6 mphClear
8:35 PM45.7 °F37.4 °F73 %30.01 in10.0 miWest (260°)6.9 mphClear
8:55 PM45.7 °F37.6 °F73 %30.02 in10.0 miWest (270°)6.9 mphClear
9:15 PM44.1 °F36.9 °F76 %30.03 in10.0 miWest (260°)8.1 mphClear
9:35 PM43.9 °F37.2 °F77 %30.04 in10.0 miWest (270°)8.1 mphClear
9:55 PM43.9 °F36.9 °F76 %30.04 in10.0 miWest (280°)8.1 mphClear
10:15 PM43.5 °F37.0 °F78 %30.06 in10.0 miWNW (300°)8.1 mphClear
10:35 PM43.9 °F37.6 °F78 %30.06 in10.0 miWNW (300°)6.9 mphClear
10:55 PM44.6 °F38.5 °F79 %30.07 in10.0 miNW (320°)6.9 mphClear
11:15 PM43.3 °F37.9 °F81 %30.08 in10.0 miNNW (340°)10.4 mphClear
11:35 PM42.8 °F37.4 °F81 %30.09 in10.0 miNorth (350°)8.1 mphClear
11:55 PM41.0 °F36.1 °F83 %30.09 in10.0 miNorth (350°)4.6 mphClear
Hourly data recorded from K2I0, located miles away from Dunmor, Kentucky







STORIES FROM OUR PARTNERS